Location: Delettes
(50.6178°N, 2.2123°E)
Time: 02:25:54
(UTC+00:00)

ARGOS Delta rocket - Pass Details

Date: 27 February 2020
Orbit: 636 x 837 km, 96.5° (Epoch: 09 April)

Event Time Altitude Azimuth Distance (km) Brightness Sun altitude
Exits shadow 19:13:08 24° 141° (SE) 1,331 4.8 -17.4°
Maximum altitude 19:15:37 54° 73° (ENE) 788 3.7 -17.8°
Drops below altitude 10° 19:20:03 10° 356° (N) 2,098 6.4 -18.5°
Sets 19:22:22 0° 352° (N) 3,041 7.3 -18.8°
